This is the latest recevied weather packets stored in our database for station/object IW2HNF-3. If no packets are shown the sender has not sent any weather packets the latest 10 day(s).
| Time | Temp. | Humidity | Pressure | Rain* | Wind** | Luminosity | Snow |
|---|---|---|---|---|---|---|---|
| 1778057461 | 12.78° C | 97% | 1006 hPa | 5.59 mm | - | - | - |
| 1778056836 | 12.78° C | 97% | 1006.8 hPa | 5.08 mm | - | - | - |
| 1778056259 | 12.78° C | 97% | 1007.1 hPa | 4.83 mm | - | - | - |
| 1778055636 | 12.78° C | 97% | 1007.2 hPa | 3.81 mm | - | - | - |
| 1778055060 | 12.78° C | 97% | 1007.1 hPa | 1.78 mm | - | - | - |
| 1778054868 | 12.78° C | 97% | 1007.2 hPa | 1.02 mm | - | - | - |
| 1778053861 | 12.78° C | 97% | 1006.9 hPa | 0.51 mm | - | - | - |
| 1778053236 | 13.33° C | 97% | 1007 hPa | 0.51 mm | - | - | - |
| 1778052659 | 13.33° C | 97% | 1007 hPa | 0.25 mm | - | - | - |
| 1778052036 | 13.33° C | 97% | 1007 hPa | 0.25 mm | - | - | - |
| 1778051460 | 13.33° C | 97% | 1007.1 hPa | 0.25 mm | - | - | - |
| 1778050836 | 13.33° C | 97% | 1007.1 hPa | 0.51 mm | - | - | - |
| 1778050260 | 13.33° C | 97% | 1007.2 hPa | 0.25 mm | - | - | - |
| 1778049637 | 13.33° C | 97% | 1007.2 hPa | 0.25 mm | - | - | - |
| 1778049060 | 13.33° C | 97% | 1007.2 hPa | 0.25 mm | - | - | - |
| 1778048436 | 13.33° C | 97% | 1007.3 hPa | 0.25 mm | - | - | - |
| 1778047860 | 13.33° C | 97% | 1007.4 hPa | 0.51 mm | - | - | - |
| 1778047668 | 12.78° C | 97% | 1007.3 hPa | 0.51 mm | - | - | - |
| 1778046659 | 12.78° C | 97% | 1007.3 hPa | 1.27 mm | - | - | - |
| 1778046036 | 12.78° C | 97% | 1007.3 hPa | 1.27 mm | - | - | - |
| 1778045461 | 12.78° C | 97% | 1007.3 hPa | 1.27 mm | - | - | - |
| 1778044836 | 12.78° C | 97% | 1007.4 hPa | 1.52 mm | - | - | - |
| 1778044260 | 12.78° C | 97% | 1007.6 hPa | 1.52 mm | - | - | - |
| 1778043636 | 12.78° C | 97% | 1007.8 hPa | 1.27 mm | - | - | - |
| 1778043060 | 12.78° C | 97% | 1007.8 hPa | 0.51 mm | - | - | - |
* Rain latest hour (hover to see other rain measurements)
** Current wind speed in m/s (hover to see current wind gust speed)